User: anonymous   Login
Location: Croagnes
(43.9363°N, 5.3265°E)
Time: 05:57:51
(UTC+00:00)
Language:

UNISAT 6 - Orbit

View from above orbital plane
View from above orbital plane
View from above satellite
View from above satellite

Ground track
Ground track

The orbit data is extracted from the following two-line orbital elements,

1 40012U 14033C   21298.53444603  .00000402  00000-0  66343-4 0  9991
2 40012  97.6669 134.0771 0057468 198.2622 161.6525 14.74409532395366
Epoch (UTC): 25 October 2021 12:49:36
Eccentricity: 0.0057468
inclination: 97.6669°
perigee height: 606 km
apogee height: 687 km
right ascension of ascending node: 134.0771°
argument of perigee: 198.2622°
revolutions per day: 14.74409532
mean anomaly at epoch: 161.6525°
orbit number at epoch: 39536

The dashed part of the orbit path shows where the satellite is in the earth's shadow,  

DLR